Ciudad Victoria, Mexico

12:59 AM CST on March 27, 2017 (GMT -0600)
Ciudad Victoria

Weather History for MMCV - October, 2013

Change the Weather History Date:

Thursday, October 24, 2013

  Actual Average Record
Temperature  
Mean Temperature 66 °F -  
Max Temperature 82 °F 80 °F 95 °F (2001)
Min Temperature 51 °F 59 °F 41 °F (2007)
Cooling Degree Days 2    
Growing Degree Days 16 (Base 50)    
Moisture  
Dew Point 54 °F    
Average Humidity 61    
Maximum Humidity 100    
Minimum Humidity 34    
Precipitation  
Precipitation 0.00 in - - ()
Sea Level Pressure  
Sea Level Pressure 30.17 in    
Wind  
Wind Speed 2 mph ()    
Max Wind Speed 7 mph    
Max Gust Speed -    
Visibility 9.0 miles    
Events      
Averages and records for this station are not official NWS values.
T = Trace of Precipitation, MM = Missing Value Source: Averaged Metar Reports

Daily Weather History Graph

Daily Weather History Graph

Search for Another Location

Airport or City:

Trip Planner

Search our weather history database for the weather conditions in past years. The results will help you decide how hot, cold, wet, or windy it might be!

Date:

Astronomy

Oct. 24, 2013 Rise Set
Actual Time 7:37 AM CDT 7:02 PM CDT
Civil Twilight 7:14 AM CDT 7:25 PM CDT
Nautical Twilight 6:47 AM CDT 7:51 PM CDT
Astronomical Twilight 6:21 AM CDT 8:18 PM CDT
Moon 11:40 PM CDT (10/24) 12:25 PM CDT (10/24)
Length of Visible Light 12h 10m
Length of Day
11h 24m
Waning Gibbous, 71% of the Moon is Illuminated
Oct 24
Waning Gibbous
Oct 26
Last Quarter
Nov 3
New
Nov 9
First Quarter
Nov 17
Full

Hourly Weather History & Observations

Time (CDT) Temp. Dew Point Humidity Pressure Visibility Wind Dir Wind Speed Gust Speed Precip Events Conditions
12:45 AM 58 °F 56 °F 91% 30.19 in 4 mi SSW 2.2 mph - -  
5:50 AM 55.4 °F 51.8 °F 88% 30.15 in 5.0 mi Calm Calm - N/A   Clear
6:44 AM 51.8 °F 51.8 °F 100% 30.16 in 5.0 mi West 4.6 mph - N/A   Clear
6:50 AM 55 °F 55 °F 100% 30.21 in 4 mi Calm Calm - -  
7:42 AM 51.8 °F 51.8 °F 100% 30.17 in 8.0 mi Calm Calm - N/A   Clear
8:43 AM 57.2 °F 55.4 °F 94% 30.19 in 8.0 mi WNW 2.3 mph - N/A   Clear
9:40 AM 66.2 °F 53.6 °F 64% 30.14 in 12.0 mi North 3.5 mph - N/A   Clear
9:50 AM 66 °F 54 °F 57% 30.26 in 6 mi Calm Calm - -  
10:42 AM 71.6 °F 53.6 °F 53% 30.23 in 12.0 mi NNE 3.5 mph - N/A   Clear
11:41 AM 75.2 °F 57.2 °F 53% 30.22 in 10.0 mi NE 3.5 mph - N/A   Clear
12:42 PM 75.2 °F 53.6 °F 47% 30.15 in 10.0 mi Calm Calm - N/A   Partly Cloudy
12:50 PM 79 °F 59 °F 40% 30.25 in 6 mi SSE 2.2 mph - -   Scattered Clouds
1:40 PM 77.0 °F 53.6 °F 44% 30.18 in 12.0 mi ENE 4.6 mph - N/A   Partly Cloudy
2:41 PM 78.8 °F 50.0 °F 36% 30.13 in 12.0 mi ENE 6.9 mph - N/A   Clear
3:40 PM 78.8 °F 50.0 °F 36% 30.19 in 12.0 mi East 5.8 mph - N/A   Clear
3:45 PM 82 °F 58 °F 34% 30.16 in 6 mi North 2.2 mph - -  
4:40 PM 78.8 °F 50.0 °F 36% 30.11 in 12.0 mi East 5.8 mph - N/A   Clear
5:40 PM 78.8 °F 51.8 °F 39% 30.12 in 12.0 mi NE 5.8 mph - N/A   Clear
6:42 PM 77.0 °F 55.4 °F 47% 30.13 in 12.0 mi Calm Calm - N/A   Clear
6:50 PM 76 °F 54 °F 36% 30.16 in 6 mi Calm Calm - -   Scattered Clouds
7:40 PM 68.0 °F 57.2 °F 68% 30.14 in 12.0 mi WNW 3.5 mph - N/A   Partly Cloudy
8:40 PM 64.4 °F 57.2 °F 77% 30.16 in 12.0 mi West 5.8 mph - N/A   Partly Cloudy